Погода во Флемали

Бельгия     50°36′07″N   5°26′34″E
темп.,
°C
ветер,
м/с
пор.,
м/с
влажн.,
%
обл.,
%
осадки,
мм/ч
давл.,
гПа
погр.,
м
15 апреля, чт
чт1523:000св229072 0.1 103121
02:00−1ссв119466 0.1 103111
05:00−2ссв119697 0.0 103114
08:000ссв13915 0.0 1031101
11:00+5ссв347040 0.1 1030996
14:00+7ссв445877 0.8 10291480
17:00+8ссв555269 0.4 10281664
20:00+4ссв3568100 0.4 102892
16 апреля, пт
пт1623:00+1св228158 0.0 102921
02:000св227781 0.0 102922
05:00−1св228312 0.0 102817
08:00+1ссв268026 0.0 1028184
11:00+6св585476 0.0 10281447
14:00+7св685889 0.0 10271621
17:00+8св4855100 0.0 10261613
20:00+6ссв377089 0.0 1026257
17 апреля, сб
сб1723:00+3ссв228855 0.0 102713
02:00+1ссв229356 0.0 102617
05:000с2293100 0.0 102617
08:00+1с27860 0.0 1026244
11:00+7св58565 0.0 10251015
14:00+10св565124 0.0 10241482
17:00+11ссв465022 0.0 10231612
20:00+8ссв227034 0.0 102332
18 апреля, вс
вс1823:00+3св118130 0.0 102410
02:00+2зсз1187100 0.0 102410
05:00+2з0089100 0.0 102314
08:00+4сз0185100 0.0 102368
11:00+8с227099 0.0 1023621
14:00+11сз2259100 0.1 10211415
17:00+10сз4364100 0.1 10211020
20:00+7сз247719 0.3 102169
19 апреля, пн
пн1923:00+3з118318 0.0 102111
02:00+1ююз11845 0.0 102111
05:00+1ю11875 0.0 102010
08:00+3ююв01805 0.0 102056
11:00+10св11635 0.0 1019715
14:00+11ссв115799 0.1 10171293
17:00+10всв226691 0.1 1016660
20:00+9ссв2277100 0.1 101521